EW9442 Weather Reports


time (UTC)temp
F
wind
direction
speed
knots
gust
knots
rain 1hr
in
rain 24hr
in
rain mn
in
humidity
%
barometer
mb
20260505170022 78 259 0.0 0.0 0.00 0.00 0.00 77 1006.1
20260505164531 78 308 0.0 0.0 0.00 0.00 0.00 78 1006.2
20260505163022 77 264 0.0 0.0 0.00 0.00 0.00 79 1006.2
20260505161514 76 355 0.0 0.0 0.00 0.00 0.00 79 1006.2
20260505153007 75 286 0.0 0.0 0.00 0.00 0.00 80 1006.2
20260505151504 75 157 0.0 0.0 0.00 0.00 0.00 81 1006.1
20260505124542 71 30 0.0 0.0 0.00 0.00 0.00 85 1005.5
20260505123103 71 347 0.0 0.0 0.00 0.00 0.00 85 1005.5
20260505121540 71 286 0.0 0.0 0.00 0.00 0.00 85 1005.6
20260505120047 71 290 0.0 0.0 0.00 0.00 0.00 85 1005.5
20260505114548 71 350 0.0 0.0 0.00 0.00 0.00 85 1005.5
20260505113036 70 300 0.0 0.0 0.00 0.00 0.00 85 1005.2
20260505111535 71 13 0.0 0.0 0.00 0.00 0.00 85 1005.2
20260505101537 71 240 0.0 0.0 0.00 0.00 0.00 84 1005.7
20260505100033 71 350 0.0 0.0 0.00 0.00 0.00 83 1005.7
20260505094530 70 71 0.0 0.0 0.00 0.00 0.00 83 1005.6
20260505093034 70 20 0.0 0.0 0.00 0.00 0.00 83 1005.5
20260505091539 71 265 0.0 0.0 0.00 0.00 0.00 83 1005.4
20260505090043 71 286 0.0 0.0 0.00 0.00 0.00 82 1005.3
20260505084527 71 295 0.0 0.0 0.00 0.00 0.00 82 1005.4
20260505083020 71 5 0.0 2.6 0.00 0.00 0.00 82 1005.6
20260505081525 71 17 0.0 0.0 0.00 0.00 0.00 83 1005.6
20260505080038 71 38 0.0 0.9 0.00 0.00 0.00 83 1005.7
20260505074514 71 257 0.0 2.6 0.00 0.00 0.00 83 1006.0
20260505073127 70 132 0.0 0.0 0.00 0.00 0.00 83 1006.4
20260505071512 70 11 0.0 0.0 0.00 0.00 0.00 82 1006.5
20260505070013 70 13 0.0 0.0 0.00 0.00 0.00 82 1006.6
20260505064507 71 16 0.0 0.0 0.00 0.00 0.00 81 1006.9
20260505063006 71 32 0.0 0.0 0.00 0.00 0.00 81 1007.0
20260505061509 71 290 0.0 0.0 0.00 0.00 0.00 80 1007.0
20260505060002 71 333 0.0 0.0 0.00 0.00 0.00 79 1007.2
20260505054501 72 36 0.0 0.0 0.00 0.00 0.00 79 1007.3
20260505053106 72 329 0.0 0.0 0.00 0.00 0.00 78 1007.3
20260505051556 72 14 0.0 0.0 0.00 0.00 0.00 78 1007.2
20260505050111 72 34 0.0 0.0 0.00 0.00 0.00 77 1007.1
20260505041548 73 24 0.0 0.0 0.00 0.00 0.00 76 1007.4
20260505040034 73 55 0.0 0.0 0.00 0.00 0.00 75 1007.2
20260505034532 73 22 0.0 0.0 0.00 0.00 0.00 75 1007.2
20260505033032 73 281 0.0 0.0 0.00 0.00 0.00 74 1007.3
20260505031540 74 13 0.0 0.0 0.00 0.00 0.00 74 1007.2
20260505030036 74 322 0.0 0.0 0.00 0.00 0.00 74 1007.3
20260505024530 74 349 0.0 0.0 0.00 0.00 0.00 73 1007.0
20260505023039 74 355 0.0 0.0 0.00 0.00 0.00 72 1007.0
20260505021529 74 11 0.0 0.0 0.00 0.00 0.00 72 1006.9
20260505020029 75 41 0.0 0.0 0.00 0.00 0.00 71 1006.9
20260505014527 75 13 0.0 0.0 0.00 0.00 0.00 71 1007.0
20260505013026 75 15 0.0 0.0 0.00 0.00 0.00 70 1006.9
20260505011530 75 5 0.0 0.0 0.00 0.00 0.00 69 1006.9
20260505010025 76 335 0.0 0.0 0.00 0.00 0.00 69 1007.1
20260505004533 76 252 0.0 0.0 0.00 0.00 0.00 67 1007.1
20260505003023 77 296 0.0 0.0 0.00 0.00 0.00 67 1007.0
20260505001522 77 344 0.0 0.0 0.00 0.00 0.00 66 1007.1
20260505000028 78 330 0.0 0.0 0.00 0.00 0.00 65 1007.2
20260504234520 78 279 0.0 0.0 0.00 0.00 0.00 64 1007.2
20260504233020 79 317 0.0 0.0 0.00 0.00 0.00 63 1007.3
20260504231517 79 340 0.0 0.0 0.00 0.00 0.00 63 1007.6
20260504230018 80 342 0.0 0.0 0.00 0.00 0.00 61 1007.7
20260504224515 81 263 0.0 0.0 0.00 0.00 0.00 60 1007.9
20260504223015 81 65 0.0 0.0 0.00 0.00 0.00 60 1007.8
20260504221518 81 246 0.0 0.0 0.00 0.00 0.00 60 1007.9
20260504220011 82 112 0.0 0.0 0.00 0.00 0.00 57 1008.1
20260504214512 83 350 0.0 0.0 0.00 0.00 0.00 57 1008.4
20260504213020 83 22 0.0 0.0 0.00 0.00 0.00 57 1008.5
20260504211511 82 283 0.0 0.0 0.00 0.00 0.00 55 1008.6
20260504210002 82 355 0.0 0.0 0.00 0.00 0.00 56 1009.2
20260504204603 82 12 0.0 0.0 0.00 0.00 0.00 56 1009.3
20260504203119 81 247 0.0 0.0 0.00 0.00 0.00 57 1010.1
20260504201554 81 5 0.0 0.0 0.00 0.00 0.00 55 1010.2
20260504200051 81 214 0.0 0.0 0.00 0.00 0.00 54 1010.3
20260504194558 82 41 0.0 0.0 0.00 0.00 0.00 53 1010.5
20260504193051 81 341 0.0 0.0 0.00 0.00 0.00 54 1010.8
20260504191539 81 316 0.0 0.0 0.00 0.00 0.00 52 1011.2
20260504190036 81 207 0.0 0.0 0.00 0.00 0.00 52 1011.4
20260504184534 80 232 0.0 0.0 0.00 0.00 0.00 53 1011.5
20260504183033 80 179 0.0 0.0 0.00 0.00 0.00 54 1011.5
20260504181531 80 351 0.0 0.0 0.00 0.00 0.00 54 1011.9
20260504180024 80 205 0.0 0.0 0.00 0.00 0.00 53 1012.2
20260504174521 79 160 0.0 0.0 0.00 0.00 0.00 53 1012.5
20260504173032 78 242 0.0 0.0 0.00 0.00 0.00 52 1012.8
20260504171522 78 301 0.0 0.0 0.00 0.00 0.00 55 1012.9